This is the latest recevied weather packets stored in our database for station/object N5TDX. If no packets are shown the sender has not sent any weather packets the latest 10 day(s).
| Time | Temp. | Humidity | Pressure | Rain* | Wind** | Luminosity | Snow |
|---|---|---|---|---|---|---|---|
| 1777915034 | 26.67° C | 51% | 1008.3 hPa | 0 mm | - | - | - |
| 1777914731 | 26.11° C | 53% | 1008.2 hPa | 0 mm | - | - | - |
| 1777914428 | 26.11° C | 52% | 1008.4 hPa | 0 mm | - | - | - |
| 1777914125 | 25.56° C | 53% | 1008.3 hPa | 0 mm | - | - | - |
| 1777913821 | 25.56° C | 54% | 1008.7 hPa | 0 mm | - | - | - |
| 1777913518 | 25.56° C | 53% | 1008.8 hPa | 0 mm | - | - | - |
| 1777913214 | 25° C | 54% | 1008.6 hPa | 0 mm | - | - | - |
| 1777912910 | 24.44° C | 55% | 1008.9 hPa | 0 mm | - | - | - |
| 1777912607 | 24.44° C | 54% | 1009.2 hPa | 0 mm | - | - | - |
| 1777912303 | 24.44° C | 54% | 1009.2 hPa | 0 mm | - | - | - |
| 1777911999 | 24.44° C | 54% | 1009.2 hPa | 0 mm | - | - | - |
| 1777911696 | 24.44° C | 53% | 1009 hPa | 0 mm | - | - | - |
| 1777911392 | 24.44° C | 56% | 1009.2 hPa | 0 mm | - | - | - |
| 1777911090 | 24.44° C | 55% | 1009.3 hPa | 0 mm | - | - | - |
| 1777910787 | 24.44° C | 55% | 1009.3 hPa | 0 mm | - | - | - |
| 1777910484 | 23.89° C | 56% | 1009.3 hPa | 0 mm | - | - | - |
| 1777910180 | 23.33° C | 57% | 1009.3 hPa | 0 mm | - | - | - |
| 1777909878 | 23.89° C | 56% | 1009.5 hPa | 0 mm | - | - | - |
| 1777909574 | 23.33° C | 57% | 1009.6 hPa | 0 mm | - | - | - |
| 1777909271 | 23.33° C | 57% | 1009.3 hPa | 0 mm | - | - | - |
| 1777908970 | 22.78° C | 57% | 1009.5 hPa | 0 mm | - | - | - |
| 1777908668 | 22.78° C | 57% | 1009.6 hPa | 0 mm | - | - | - |
| 1777908364 | 22.78° C | 57% | 1009.7 hPa | 0 mm | - | - | - |
| 1777908061 | 22.22° C | 59% | 1009.7 hPa | 0 mm | - | - | - |
| 1777907756 | 21.67° C | 60% | 1009.7 hPa | 0 mm | - | - | - |
* Rain latest hour (hover to see other rain measurements)
** Current wind speed in m/s (hover to see current wind gust speed)